Regional Weather Roundup
Issued by NWS Little Rock, AR

Home | Current Version | Previous Version | Graphics & Text | Print | Product List | Glossary On
Versions: 1 2 3 4 5 6 7 8 9 10 11 12 13 14 15 16 17 18 19 20 21 22 23 24 25 26 27 28 29 30 31 32 33 34 35 36 37 38 39 40 41 42 43 44 45 46 47 48 49 50
000
ASUS44 KLZK 272205
RWRLZK

WEATHER ROUNDUP FOR ARKANSAS
NATIONAL WEATHER SERVICE LITTLE ROCK AR
500 PM CDT WED MAY 27 2015

NOTE: "FAIR" INDICATES FEW OR NO CLOUDS BELOW 12,000 FEET WITH NO
SIGNIFICANT WEATHER AND/OR OBSTRUCTIONS TO VISIBILITY.

ARZ001-003-010-029-272300-
NORTHWEST ARKANSAS

CITY           SKY/WX    TMP DP  RH WIND       PRES   REMARKS
FAYETTEVILLE   MOSUNNY   82  67  60 SW9       30.07F
FORT SMITH     PTSUNNY   85  64  49 NW8       30.04F HX  86
HARRISON       MOSUNNY   81  63  54 E7        30.08F THUNDER
BENTONVILLE    PTSUNNY   84  63  48 S3        30.08F HX  85
ROGERS         PTSUNNY   82  65  56 N5        30.08F
SILOAM SPGS    MOSUNNY   84  64  51 SW7       30.08F HX  86
HIGHFILL       MOSUNNY   84  66  54 CALM      30.07F HX  86
SPRINGDALE     CLOUDY    82  63  51 CALM      30.09F
$$

ARZ004-005-016-272300-
NORTH CENTRAL ARKANSAS

CITY           SKY/WX    TMP DP  RH WIND       PRES   REMARKS
BATESVILLE     MOSUNNY   82  68  61 SW6       30.07F HX  85
FLIPPIN          N/A     82  66  57 CALM      30.05S HX  85
MTN HOME       MOSUNNY   82  63  52 SE3       30.07S
$$

ARZ040-041-272300-
WEST CENTRAL ARKANSAS

CITY           SKY/WX    TMP DP  RH WIND       PRES   REMARKS
MENA           MOSUNNY   86  66  51 SW5       30.08F HX  88
MOUNT IDA      SUNNY     85  65  51 CALM      30.04F HX  86
$$

ARZ009-017-025-026-028-272300-
NORTHEAST ARKANSAS

CITY           SKY/WX    TMP DP  RH WIND       PRES   REMARKS
CORNING        FAIR      79  70  73 SW10      30.08S
JONESBORO      CLOUDY    77  67  71 SW9       30.07F
NEWPORT        PTSUNNY   82  67  60 SE8G22    30.08F
WALNUT RIDGE   CLOUDY    79  66  65 SW8       30.07S
BLYTHEVILLE    CLOUDY    78  69  73 SW8       30.08F
$$

ARZ022-023-033-042-044-272300-
CENTRAL ARKANSAS

CITY           SKY/WX    TMP DP  RH WIND       PRES   REMARKS
LITTLE ROCK    PTSUNNY   85  66  53 S6        30.05F HX  87
N LITTLE ROCK  PTSUNNY   83  71  66 S3        30.05F HX  87
JACKSONVILLE   MOSUNNY   84  68  59 VRB5      30.05F HX  87
SEARCY         PTSUNNY   83  69  62 VRB5      30.07F HX  86
HOT SPRINGS    MOSUNNY   84  64  50 S5        30.06F HX  85
RUSSELLVILLE   MOSUNNY   85  67  54 VRB5      30.04F HX  87
CLINTON        FAIR      82  70  65 S5        30.07F HX  86
$$

ARZ036-272300-
EAST ARKANSAS

CITY           SKY/WX    TMP DP  RH WIND       PRES   REMARKS
WEST MEMPHIS   CLOUDY    77  69  76 S8        30.08S
$$

ARZ050-053-066-070-073-272300-
SOUTHWEST ARKANSAS

CITY           SKY/WX    TMP DP  RH WIND       PRES   REMARKS
ARKADELPHIA    FAIR      87  69  54 CALM      30.05F HX  91
CAMDEN         MOSUNNY   86  66  51 CALM      30.05S HX  88
TEXARKANA      SUNNY     84  67  56 E5        30.05F HX  86
EL DORADO      PTSUNNY   84  67  56 VRB3      30.06F HX  86
DE QUEEN       MOSUNNY   84  65  52 E12       30.04F HX  86
$$

ARZ056-057-069-272300-
SOUTHEAST ARKANSAS

CITY           SKY/WX    TMP DP  RH WIND       PRES   REMARKS
PINE BLUFF     PTSUNNY   82  68  62 SW8       30.06F HX  85
STUTTGART      PTSUNNY   81  68  65 SW5       30.07S
MONTICELLO     CLOUDY    80  71  74 S5        30.07F

$$




USA.gov is the U.S. government's official web portal to all federal, state and local government web resources and services.